Wind_Speed
41 49 60 64 72 77 81 77 65 65 69 74 72 70 68 66 63 60 59 55 54 54 53 52 51 48 45 46 46 45 45 45 44 44 42 41 41 40 40 40 40 41 41
55 60 62 70 72 71 70 71 71 69 67 67 73 76 75 72 69 64 63 61 57 56 55 55 54 53 51 51 50 50 49 47 45 45 44 43 42 42 42 42 42 42 43
59 63 65 54 64 69 69 68 70 66 67 67 64 68 72 73 72 69 66 65 62 61 59 58 56 55 54 55 55 55 55 52 49 47 46 46 45 44 44 45 46 45 46
60 31 66 52 55 61 62 67 68 69 71 68 66 68 68 72 73 71 70 68 66 65 63 60 60 60 58 58 57 56 55 56 54 53 52 52 50 49 49 49 50 51 50
71 65 53 37 60 55 68 68 68 64 67 68 71 70 72 70 72 74 72 69 68 67 65 63 63 63 60 59 60 58 59 58 57 58 57 57 56 56 54 53 53 54 54
83 75 68 75 67 71 66 62 67 71 74 71 71 73 72 74 73 72 73 71 70 69 68 66 66 66 65 63 62 61 60 59 58 59 59 59 59 60 59 58 57 56 55
89 85 78 74 77 77 68 71 73 69 72 75 73 69 75 75 77 74 71 71 71 71 71 71 70 69 68 66 68 66 64 63 61 61 61 61 60 60 61 61 60 60 59
93 90 85 82 77 79 80 77 75 72 70 72 79 81 75 74 74 78 79 77 74 71 71 71 71 71 71 68 69 68 67 65 63 63 63 63 63 62 62 61 63 64 63
98 98 97 93 90 82 78 84 81 76 69 67 75 72 69 71 78 79 79 77 77 77 76 74 73 73 73 72 71 71 71 71 70 67 65 65 66 65 65 65 65 65 66
105 103 100 97 96 95 90 88 90 85 79 76 73 69 69 68 69 71 75 77 75 76 79 78 76 76 74 74 74 73 73 73 73 73 71 70 69 69 68 67 67 67 68
111 108 105 103 100 97 96 93 92 94 89 89 84 81 75 73 80 83 83 81 79 77 77 77 77 76 76 76 76 75 76 74 74 74 73 72 71 70 70 70 71 71 71
116 114 111 107 105 100 99 100 98 95 99 95 96 95 94 91 90 92 91 88 86 81 76 74 74 75 77 77 78 79 79 78 78 78 77 75 74 72 71 72 72 71 71
124 119 116 114 110 107 103 100 101 101 98 98 98 95 93 88 89 87 91 89 85 84 83 80 76 73 73 76 79 79 78 79 79 79 78 79 78 77 76 75 74 73 72
129 127 124 119 116 113 110 106 103 100 100 100 99 95 93 91 91 85 89 90 92 89 88 86 85 83 81 76 75 78 78 77 78 79 80 80 80 80 79 80 79 77 75
133 131 129 125 122 118 116 114 109 105 102 99 102 99 96 93 91 90 91 88 95 96 92 92 91 89 86 83 81 80 79 81 79 79 80 81 82 82 82 82 81 80 78
137 136 134 130 126 122 120 119 116 112 108 102 100 100 102 97 97 94 92 90 90 89 93 94 93 93 89 88 86 85 83 84 83 83 84 85 85 84 83 83 82 80 80
137 138 138 135 131 127 124 122 119 117 113 108 104 102 100 102 101 99 100 98 94 93 90 93 93 92 90 89 90 89 87 85 85 86 89 86 87 87 84 84 83 82 82
134 137 138 136 135 133 130 125 123 120 117 113 109 105 103 102 101 104 103 101 100 100 97 93 93 92 89 90 90 88 91 91 89 88 87 87 87 88 86 86 79 79 80
129 135 135 137 136 132 129 127 125 124 121 118 115 111 106 108 102 103 104 107 105 103 102 100 96 93 91 86 85 83 81 83 85 89 89 89 88 86 81 78 80 80 79
125 128 131 135 133 132 131 126 126 125 122 121 116 114 110 107 106 108 108 106 107 109 105 104 101 100 93 91 86 85 81 87 85 86 84 86 87 85 87 89 90 90 90
123 123 124 127 129 132 131 129 132 124 121 120 116 114 113 110 109 110 113 110 111 109 107 105 102 101 100 99 94 90 90 95 96 92 88 88 90 92 93 89 94 96 96
115 119 120 123 124 127 126 131 128 124 122 121 119 115 113 113 114 113 113 113 110 108 106 105 106 103 100 99 102 100 99 96 95 97 97 99 100 101 102 102 104 99 99
102 108 113 119 124 125 124 126 120 122 122 121 121 120 117 116 112 117 117 118 114 112 108 105 101 101 102 103 103 104 105 105 105 104 105 105 103 99 100 100 100 102 104
88 95 103 110 117 123 126 120 120 122 123 122 124 123 117 116 119 116 116 116 113 112 111 108 104 103 102 103 103 102 103 106 107 110 112 111 111 112 113 113 113 116 117
75 82 89 98 104 111 119 117 119 115 122 120 123 124 118 118 117 120 117 117 116 112 110 109 110 108 106 105 104 102 104 104 105 108 110 110 115 117 118 120 121 122 124
64 69 77 85 93 99 103 106 111 112 114 111 114 116 118 119 118 121 121 118 118 116 116 114 113 112 110 111 112 109 108 108 108 109 109 110 109 111 113 117 120 122 122
Wind_Direction
234 251 249 247 250 249 251 249 250 247 245 242 243 244 245 247 246 245 245 245 246 249 251 252 250 251 254 253 254 254 254 256 257 258 260 262 265 268 270 271 274 277 280
223 224 242 250 247 246 248 251 247 248 247 247 245 244 245 245 248 246 245 244 244 244 247 250 251 251 254 256 252 252 254 256 259 260 260 262 263 266 268 270 272 275 278
228 232 242 246 244 244 242 244 243 242 245 247 247 246 245 243 244 246 246 245 245 244 242 245 249 250 253 253 255 253 253 255 257 259 260 262 264 267 269 271 272 274 276
224 208 247 247 245 240 243 241 241 243 243 244 245 246 246 245 244 246 247 246 246 245 245 243 246 247 251 255 254 253 256 258 257 258 259 262 265 267 269 272 274 275 277
224 223 223 215 236 239 244 236 235 235 236 240 241 243 244 245 244 245 244 246 244 246 245 245 243 246 249 251 252 254 256 258 259 258 259 261 263 267 268 270 273 276 278
225 223 222 219 222 229 231 233 230 233 235 234 236 238 240 241 244 242 242 243 244 244 245 245 246 243 244 246 250 253 254 257 259 261 262 263 266 269 269 271 273 276 278
226 225 222 224 224 225 232 231 231 232 233 237 236 234 236 238 240 241 240 241 242 243 243 245 245 246 246 245 246 250 253 254 256 259 260 263 265 267 270 272 273 274 275
228 219 222 226 226 227 229 225 228 232 234 232 235 232 231 235 239 242 242 243 243 242 242 243 245 246 247 246 247 248 252 254 254 257 258 260 262 265 268 270 272 273 275
231 228 226 227 227 226 226 225 230 229 227 229 232 231 233 233 234 239 242 242 243 244 245 244 246 247 245 245 246 248 250 253 256 257 260 262 263 265 267 268 270 272 274
233 232 231 231 230 231 230 226 228 230 227 224 224 229 234 235 238 240 243 244 245 245 245 246 246 245 246 248 248 248 249 252 255 256 259 261 263 265 267 269 271 272 273
235 234 232 231 232 233 233 230 228 226 228 228 232 232 231 239 247 249 246 245 245 245 245 245 245 245 246 247 250 250 252 253 255 257 258 260 262 264 266 269 270 271 272
235 236 235 234 232 233 234 233 233 231 230 233 236 240 240 244 245 244 245 245 243 243 243 244 245 246 248 250 250 251 252 254 255 257 259 261 263 264 266 267 269 271 273
235 235 236 235 234 233 234 234 234 234 233 234 237 240 243 243 244 245 242 244 242 241 243 244 244 246 248 250 251 253 254 255 257 258 259 260 262 263 265 265 267 270 273
232 235 235 235 235 235 235 237 236 236 234 235 236 238 240 244 246 245 241 241 244 243 245 246 247 248 248 250 252 253 254 256 256 258 259 260 262 263 264 266 267 269 272
230 232 234 235 236 236 235 235 236 236 236 234 235 238 240 241 242 243 247 244 242 244 245 247 249 249 250 251 251 252 252 254 256 257 258 259 260 261 262 265 267 270 273
230 230 231 233 234 235 236 236 236 235 235 235 236 236 239 241 239 240 242 246 245 246 246 247 249 251 252 252 252 253 254 254 256 257 258 258 260 261 263 264 267 270 273
232 231 231 232 233 234 235 236 236 236 237 236 236 238 238 238 239 240 241 242 246 248 246 247 248 250 252 253 253 254 255 257 257 257 259 260 262 264 265 267 269 270 271
233 233 232 233 233 233 234 235 236 236 237 236 237 235 237 239 239 240 241 244 246 246 247 247 248 249 249 253 255 255 257 258 260 259 261 263 265 267 270 270 270 269 269
232 233 233 233 233 234 235 235 235 235 235 236 236 236 236 238 241 241 241 242 245 246 246 246 247 250 249 248 251 252 256 261 262 264 266 268 268 269 266 266 270 272 271
233 232 232 233 234 234 234 235 235 234 235 235 236 237 237 238 239 241 243 243 244 244 244 247 248 250 249 249 248 249 250 250 256 261 262 265 267 267 270 271 273 271 273
233 232 232 232 233 233 234 235 235 236 237 236 236 237 236 238 238 239 240 243 244 244 246 246 249 250 249 250 248 246 243 251 253 255 256 260 262 266 268 269 272 276 276
231 232 231 231 231 232 233 234 234 236 236 236 237 237 236 236 236 238 239 241 243 244 246 248 247 250 251 251 249 249 247 248 249 253 255 257 259 260 266 268 273 276 275
228 230 231 230 231 232 232 233 233 234 235 236 235 236 236 236 237 237 238 242 243 244 245 248 248 249 250 252 252 253 253 252 252 252 253 253 256 258 259 264 265 267 271
227 227 227 228 228 229 231 231 231 232 234 234 235 235 235 236 236 238 239 240 243 244 246 249 250 250 250 252 254 255 257 256 256 256 255 256 258 257 258 260 262 265 267
224 225 225 226 227 227 229 229 230 229 232 233 234 235 236 236 237 237 239 241 242 245 247 249 251 252 254 254 254 256 257 258 259 260 259 258 259 261 262 263 264 266 267
222 222 223 223 224 225 227 228 228 228 230 230 233 234 236 237 238 239 240 243 245 247 248 249 251 252 254 255 256 258 260 259 259 261 262 263 264 263 263 265 267 268 269
Height
10697 10695 10694 10697 10700 10706 10711 10719 10722 10726 10732 10740 10745 10749 10753 10757 10761 10765 10769 10774 10778 10782 10784 10788 10792 10795 10797 10798 10800 10802 10803 10804 10805 10807 10808 10809 10809 10809 10810 10810 10810 10810 10809
10678 10678 10682 10683 10686 10690 10697 10703 10707 10712 10717 10722 10729 10734 10740 10745 10749 10754 10758 10762 10767 10771 10775 10777 10783 10786 10788 10790 10793 10794 10795 10797 10797 10799 10800 10801 10801 10802 10803 10803 10803 10802 10802
10660 10666 10671 10672 10674 10677 10681 10687 10691 10695 10703 10707 10714 10720 10725 10731 10737 10741 10746 10750 10754 10758 10764 10767 10771 10777 10778 10780 10784 10786 10786 10788 10790 10791 10792 10793 10794 10795 10795 10795 10795 10795 10793
10645 10663 10661 10664 10664 10664 10667 10671 10674 10680 10689 10692 10699 10705 10710 10717 10725 10729 10733 10738 10742 10746 10750 10755 10759 10764 10767 10771 10774 10775 10776 10778 10782 10783 10783 10783 10785 10785 10786 10786 10786 10786 10785
10625 10634 10643 10644 10651 10644 10649 10654 10659 10664 10671 10676 10683 10691 10697 10702 10711 10715 10720 10724 10730 10734 10738 10742 10747 10750 10756 10760 10764 10766 10766 10768 10772 10772 10774 10774 10776 10776 10777 10777 10777 10777 10776
10602 10613 10621 10625 10627 10630 10633 10638 10642 10645 10652 10659 10667 10675 10683 10689 10695 10702 10706 10711 10715 10721 10725 10730 10733 10737 10743 10748 10752 10754 10756 10758 10761 10762 10764 10764 10766 10766 10766 10767 10768 10768 10768
10579 10589 10598 10602 10608 10614 10617 10621 10626 10630 10637 10644 10651 10660 10666 10674 10680 10688 10691 10695 10700 10705 10711 10715 10720 10724 10729 10735 10739 10742 10744 10747 10750 10751 10753 10754 10755 10756 10756 10757 10757 10757 10757
10555 10566 10573 10581 10588 10593 10599 10605 10609 10615 10620 10628 10637 10639 10651 10658 10668 10669 10676 10681 10685 10691 10696 10701 10706 10711 10716 10722 10725 10731 10732 10734 10738 10739 10741 10742 10743 10744 10745 10745 10745 10746 10746
10527 10539 10550 10559 10563 10572 10581 10588 10594 10601 10606 10612 10620 10629 10636 10647 10647 10654 10658 10666 10672 10676 10682 10688 10693 10698 10702 10707 10713 10717 10719 10721 10723 10727 10728 10729 10730 10732 10732 10733 10733 10733 10733
10498 10509 10521 10533 10544 10552 10561 10568 10577 10585 10591 10598 10604 10614 10623 10630 10635 10642 10645 10648 10656 10662 10668 10674 10680 10685 10689 10693 10698 10703 10706 10708 10709 10713 10715 10717 10718 10719 10719 10720 10720 10720 10721
10469 10481 10493 10506 10517 10528 10538 10549 10557 10569 10577 10584 10592 10598 10608 10615 10618 10627 10630 10633 10640 10645 10653 10659 10666 10671 10675 10679 10684 10689 10692 10695 10696 10699 10701 10704 10705 10706 10706 10706 10706 10707 10707
10437 10451 10465 10479 10492 10504 10514 10525 10536 10546 10560 10567 10574 10583 10593 10603 10604 10607 10610 10615 10624 10633 10638 10646 10652 10658 10661 10665 10669 10672 10678 10680 10682 10684 10687 10690 10690 10692 10692 10693 10693 10693 10694
10404 10420 10435 10450 10464 10478 10491 10501 10513 10525 10539 10549 10558 10566 10573 10583 10586 10591 10596 10600 10607 10616 10622 10630 10637 10641 10647 10651 10654 10657 10661 10665 10667 10668 10671 10673 10674 10677 10678 10678 10679 10679 10680
10373 10387 10404 10421 10435 10450 10465 10476 10488 10502 10516 10529 10538 10546 10556 10564 10570 10575 10577 10585 10592 10599 10606 10614 10620 10626 10630 10633 10638 10642 10646 10649 10651 10653 10655 10658 10659 10660 10663 10663 10664 10665 10666
10339 10356 10371 10390 10406 10423 10437 10450 10463 10478 10491 10506 10519 10527 10537 10545 10553 10558 10560 10570 10575 10583 10590 10595 10602 10607 10613 10618 10622 10626 10630 10631 10634 10635 10638 10640 10642 10644 10646 10648 10650 10650 10651
10306 10322 10339 10357 10375 10392 10408 10421 10438 10453 10466 10482 10495 10506 10516 10528 10536 10541 10545 10550 10559 10566 10574 10578 10584 10588 10596 10601 10605 10609 10612 10614 10616 10619 10620 10622 10626 10628 10631 10633 10636 10638 10636
10270 10288 10306 10325 10343 10361 10377 10393 10411 10426 10441 10459 10472 10484 10495 10505 10516 10524 10529 10533 10541 10549 10557 10559 10566 10573 10579 10583 10587 10592 10595 10598 10600 10602 10601 10607 10609 10611 10616 10618 10620 10622 10620
10235 10253 10272 10293 10312 10329 10346 10365 10382 10399 10415 10432 10450 10462 10474 10481 10495 10505 10512 10517 10524 10530 10536 10544 10547 10556 10562 10566 10570 10574 10576 10579 10583 10584 10587 10591 10594 10595 10598 10600 10601 10601 10602
10200 10218 10239 10260 10280 10300 10318 10337 10354 10370 10388 10406 10422 10437 10453 10460 10475 10485 10493 10498 10505 10510 10516 10525 10531 10538 10547 10549 10555 10559 10560 10560 10563 10565 10569 10573 10575 10577 10579 10581 10583 10585 10583
10163 10185 10207 10227 10250 10270 10291 10308 10323 10342 10360 10379 10397 10414 10430 10441 10455 10462 10470 10479 10484 10491 10497 10506 10514 10520 10529 10534 10540 10543 10545 10545 10548 10552 10553 10554 10554 10556 10558 10561 10563 10563 10563
10130 10151 10174 10197 10219 10239 10259 10279 10296 10316 10336 10356 10372 10389 10407 10419 10431 10440 10447 10456 10463 10472 10481 10487 10498 10502 10510 10516 10521 10523 10525 10527 10533 10537 10538 10538 10540 10540 10541 10541 10539 10541 10543
10102 10121 10144 10166 10186 10208 10230 10246 10267 10293 10312 10332 10348 10364 10381 10395 10405 10417 10428 10432 10443 10452 10462 10468 10478 10484 10489 10493 10496 10502 10507 10514 10518 10518 10518 10518 10521 10523 10522 10523 10521 10521 10519
10078 10096 10115 10135 10154 10175 10198 10216 10244 10268 10289 10309 10324 10338 10356 10369 10386 10393 10406 10413 10422 10432 10441 10447 10458 10464 10468 10470 10473 10484 10487 10493 10497 10498 10501 10499 10500 10505 10503 10505 10504 10502 10501
10057 10073 10089 10106 10127 10147 10165 10191 10219 10239 10260 10278 10296 10312 10332 10349 10358 10370 10382 10392 10402 10410 10422 10430 10436 10440 10444 10448 10458 10461 10466 10470 10472 10476 10475 10482 10482 10483 10482 10484 10483 10482 10481
10039 10053 10069 10084 10103 10123 10141 10166 10189 10208 10231 10248 10270 10291 10310 10323 10336 10347 10362 10372 10380 10390 10399 10407 10413 10419 10424 10428 10433 10440 10443 10445 10449 10451 10451 10458 10458 10458 10458 10457 10457 10456 10456
10025 10037 10051 10066 10082 10102 10122 10143 10163 10182 10207 10226 10249 10270 10289 10304 10316 10325 10336 10349 10360 10372 10377 10384 10391 10396 10401 10404 10411 10417 10421 10423 10425 10428 10427 10432 10433 10432 10433 10431 10429 10429 10430